{"data":{"norad_id":66949,"epoch":"2026-05-25T00:41:09.749184Z","epoch_age_seconds":62616,"freshness":"FRESH","line1":"1 66949U 25286AA  26145.02858506  .00017328  00000+0  52243-3 0  9998","line2":"2 66949  53.1601   3.2183 0000810  61.4243 298.6841 15.34421098 27114","mean_motion":15.34421098,"eccentricity":8.1e-5,"inclination_deg":53.1601,"raan_deg":3.2183,"arg_perigee_deg":61.4243,"mean_anomaly_deg":298.6841,"bstar":0.00052243,"rev_number":2711,"period_min":93.846467692404,"perigee_km":462.08643024323,"apogee_km":463.19463620361,"semimajor_km":6840.7775332234,"source":"CELESTRAK","updated_at":"2026-05-25T13:38:21.391016Z"}}